Meteo pe oră la Dzierzgowek

Astăzi, 1 Martie, Luni

Timp Temperatura Precipitaţii Vânt Presiune Umiditate
00:00 0°C° 0 mm 3 m/s 759 mmHg 94%
01:00 -1°C° 0 mm 3 m/s 760 mmHg 94%
02:00 -1°C° 0 mm 3 m/s 760 mmHg 94%
03:00 -1°C° 0 mm 2 m/s 760 mmHg 94%
04:00 -1°C° 0 mm 2 m/s 760 mmHg 94%
05:00 -1°C° 0 mm 2 m/s 760 mmHg 93%
06:00 -1°C° 0 mm 2 m/s 760 mmHg 93%
07:00 -1°C° 0 mm 2 m/s 760 mmHg 93%
08:00 +2°C° 0 mm 2 m/s 761 mmHg 86%
09:00 +4°C° 0 mm 2 m/s 761 mmHg 80%
10:00 +6°C° 0 mm 2 m/s 761 mmHg 73%
11:00 +6°C° 0 mm 2 m/s 761 mmHg 70%
12:00 +7°C° 0 mm 3 m/s 761 mmHg 67%
13:00 +8°C° 0 mm 3 m/s 761 mmHg 64%
14:00 +8°C° 0 mm 3 m/s 761 mmHg 67%
15:00 +7°C° 0 mm 4 m/s 760 mmHg 69%
16:00 +6°C° 0 mm 4 m/s 760 mmHg 71%
17:00 +5°C° 0 mm 4 m/s 760 mmHg 77%
18:00 +4°C° 0 mm 4 m/s 760 mmHg 83%
19:00 +3°C° 0 mm 4 m/s 760 mmHg 89%
20:00 +3°C° 0 mm 4 m/s 760 mmHg 89%
21:00 +1°C° 0 mm 4 m/s 759 mmHg 90%
22:00 +1°C° 0 mm 4 m/s 759 mmHg 90%
23:00 +1°C° 0 mm 4 m/s 759 mmHg 90%

Mâine, 2 Martie, Marţi

Timp Temperatura Precipitaţii Vânt Presiune Umiditate
00:00 +1°C° 0 mm 5 m/s 759 mmHg 90%
01:00 +1°C° 0 mm 5 m/s 759 mmHg 90%
02:00 0°C° 0 mm 5 m/s 759 mmHg 90%
03:00 0°C° 0 mm 5 m/s 758 mmHg 90%
04:00 0°C° 0 mm 5 m/s 758 mmHg 90%
05:00 -1°C° 0 mm 5 m/s 758 mmHg 90%
06:00 -1°C° 0 mm 5 m/s 758 mmHg 90%
07:00 -1°C° 0 mm 5 m/s 758 mmHg 90%
08:00 +1°C° 0 mm 5 m/s 758 mmHg 84%
09:00 +2°C° 0 mm 6 m/s 758 mmHg 79%
10:00 +4°C° 0 mm 6 m/s 758 mmHg 74%
11:00 +5°C° 0 mm 6 m/s 758 mmHg 71%
12:00 +7°C° 0 mm 6 m/s 758 mmHg 68%
13:00 +8°C° 0 mm 6 m/s 758 mmHg 66%
14:00 +7°C° 0 mm 5 m/s 758 mmHg 68%
15:00 +7°C° 0 mm 5 m/s 758 mmHg 70%
16:00 +7°C° 0 mm 4 m/s 758 mmHg 71%
17:00 +6°C° 0 mm 4 m/s 758 mmHg 78%
18:00 +4°C° 0 mm 4 m/s 759 mmHg 84%
19:00 +3°C° 0 mm 3 m/s 759 mmHg 90%
20:00 +2°C° 0 mm 3 m/s 759 mmHg 91%
21:00 +1°C° 0 mm 3 m/s 760 mmHg 91%
22:00 +2°C° 0 mm 2 m/s 760 mmHg 91%
23:00 +1°C° 0 mm 2 m/s 760 mmHg 89%

Poimâine, 3 Martie, Miercuri

Timp Temperatura Precipitaţii Vânt Presiune Umiditate
00:00 -1°C° 0 mm 2 m/s 760 mmHg 88%
01:00 -1°C° 0 mm 2 m/s 760 mmHg 86%
02:00 +1°C° 0 mm 1 m/s 760 mmHg 84%
03:00 +1°C° 0 mm 1 m/s 760 mmHg 82%
04:00 +1°C° 0 mm 1 m/s 760 mmHg 80%
05:00 0°C° 0 mm 0 m/s 760 mmHg 78%
06:00 0°C° 0 mm 0 m/s 760 mmHg 76%
07:00 0°C° 0 mm 0 m/s 760 mmHg 75%
08:00 +3°C° 0 mm 1 m/s 759 mmHg 67%
09:00 +4°C° 0 mm 1 m/s 759 mmHg 60%
10:00 +5°C° 0 mm 2 m/s 759 mmHg 52%
11:00 +6°C° 0 mm 2 m/s 758 mmHg 50%
12:00 +7°C° 0 mm 2 m/s 758 mmHg 47%
13:00 +8°C° 0 mm 2 m/s 757 mmHg 44%
14:00 +8°C° 0 mm 2 m/s 756 mmHg 50%
15:00 +7°C° 0 mm 2 m/s 756 mmHg 56%
16:00 +7°C° 0 mm 3 m/s 755 mmHg 62%
17:00 +5°C° 0 mm 3 m/s 754 mmHg 70%
18:00 +4°C° 0 mm 3 m/s 754 mmHg 78%
19:00 +3°C° 0 mm 3 m/s 753 mmHg 87%
20:00 +2°C° 0 mm 3 m/s 752 mmHg 87%
21:00 +2°C° 0 mm 3 m/s 752 mmHg 88%
22:00 +2°C° 0 mm 3 m/s 751 mmHg 89%
23:00 +1°C° 0 mm 3 m/s 750 mmHg 88%

4 Martie, Joi

Timp Temperatura Precipitaţii Vânt Presiune Umiditate
00:00 +1°C° 0 mm 3 m/s 750 mmHg 87%
01:00 +1°C° 0 mm 3 m/s 749 mmHg 87%
02:00 +1°C° 0 mm 3 m/s 748 mmHg 88%
03:00 -1°C° 0 mm 4 m/s 747 mmHg 90%
04:00 -1°C° 0 mm 4 m/s 747 mmHg 91%
05:00 -1°C° 0 mm 4 m/s 746 mmHg 92%
06:00 -1°C° 0 mm 4 m/s 746 mmHg 93%
07:00 -1°C° 0 mm 4 m/s 746 mmHg 95%
08:00 0°C° 0 mm 4 m/s 746 mmHg 90%
09:00 +1°C° 0 mm 4 m/s 745 mmHg 86%
10:00 +3°C° 0 mm 5 m/s 745 mmHg 82%
11:00 +4°C° 0 mm 4 m/s 745 mmHg 77%
12:00 +5°C° 0 mm 4 m/s 745 mmHg 72%
13:00 +6°C° 0 mm 4 m/s 745 mmHg 67%
14:00 +5°C° 0 mm 4 m/s 745 mmHg 69%
15:00 +4°C° 0 mm 4 m/s 744 mmHg 71%
16:00 +4°C° 0 mm 4 m/s 744 mmHg 74%
17:00 +3°C° 0 mm 3 m/s 744 mmHg 78%
18:00 +2°C° 0 mm 3 m/s 744 mmHg 82%
19:00 +2°C° 0 mm 3 m/s 744 mmHg 86%
20:00 +1°C° 0 mm 3 m/s 744 mmHg 85%
21:00 0°C° 0 mm 3 m/s 744 mmHg 84%
22:00 -1°C° 0 mm 3 m/s 745 mmHg 83%
23:00 -2°C° 0.1 mm 4 m/s 744 mmHg 86%

5 Martie, Vineri

Timp Temperatura Precipitaţii Vânt Presiune Umiditate
00:00 -2°C° 0.1 mm 4 m/s 744 mmHg 89%
01:00 -3°C° 0.1 mm 4 m/s 744 mmHg 93%
02:00 -3°C° 0.2 mm 4 m/s 744 mmHg 90%
03:00 -3°C° 0.2 mm 4 m/s 744 mmHg 88%
04:00 -4°C° 0.2 mm 4 m/s 744 mmHg 86%
05:00 -3°C° 0 mm 4 m/s 745 mmHg 82%
06:00 -3°C° 0 mm 4 m/s 745 mmHg 77%
07:00 -3°C° 0 mm 4 m/s 745 mmHg 73%
08:00 -3°C° 0 mm 4 m/s 745 mmHg 67%
09:00 -2°C° 0 mm 4 m/s 746 mmHg 61%
10:00 -2°C° 0 mm 5 m/s 746 mmHg 55%
11:00 -1°C° 0 mm 5 m/s 746 mmHg 49%
12:00 0°C° 0 mm 5 m/s 747 mmHg 43%
13:00 0°C° 0 mm 5 m/s 747 mmHg 37%
14:00 0°C° 0 mm 5 m/s 747 mmHg 41%
15:00 0°C° 0 mm 5 m/s 748 mmHg 45%
16:00 -1°C° 0 mm 5 m/s 748 mmHg 50%
17:00 -2°C° 0 mm 5 m/s 749 mmHg 54%
18:00 -3°C° 0 mm 4 m/s 749 mmHg 58%
19:00 -5°C° 0 mm 4 m/s 750 mmHg 62%
20:00 -5°C° 0 mm 4 m/s 750 mmHg 65%
21:00 -5°C° 0 mm 3 m/s 751 mmHg 67%
22:00 -5°C° 0 mm 3 m/s 752 mmHg 70%
23:00 -5°C° 0 mm 3 m/s 752 mmHg 71%

6 Martie, Sâmbătă

Timp Temperatura Precipitaţii Vânt Presiune Umiditate
00:00 -5°C° 0 mm 3 m/s 752 mmHg 71%
01:00 -5°C° 0 mm 3 m/s 753 mmHg 72%
02:00 -5°C° 0 mm 3 m/s 753 mmHg 69%
03:00 -5°C° 0 mm 4 m/s 753 mmHg 67%
04:00 -5°C° 0 mm 4 m/s 754 mmHg 64%
05:00 -5°C° 0 mm 4 m/s 754 mmHg 64%
06:00 -5°C° 0 mm 4 m/s 755 mmHg 63%
07:00 -5°C° 0 mm 4 m/s 756 mmHg 62%
08:00 -4°C° 0 mm 4 m/s 756 mmHg 57%
09:00 -4°C° 0 mm 5 m/s 756 mmHg 53%
10:00 -2°C° 0 mm 5 m/s 757 mmHg 48%
11:00 -2°C° 0.1 mm 5 m/s 757 mmHg 48%
12:00 -1°C° 0.1 mm 5 m/s 757 mmHg 48%
13:00 -1°C° 0.1 mm 5 m/s 758 mmHg 48%
14:00 -1°C° 0.1 mm 5 m/s 758 mmHg 48%
15:00 -1°C° 0.1 mm 5 m/s 758 mmHg 49%
16:00 -1°C° 0.1 mm 5 m/s 758 mmHg 50%
17:00 -3°C° 0 mm 4 m/s 758 mmHg 54%
18:00 -4°C° 0 mm 3 m/s 758 mmHg 58%
19:00 -4°C° 0 mm 2 m/s 758 mmHg 63%
20:00 -4°C° 0 mm 2 m/s 759 mmHg 63%
21:00 -4°C° 0 mm 2 m/s 759 mmHg 63%
22:00 -5°C° 0 mm 3 m/s 759 mmHg 64%
23:00 -5°C° 0 mm 3 m/s 759 mmHg 64%
Arată mai mult

Formular de consimțământ

Meteoprog și furnizorii noștri de servicii pot stoca și accesa date personale, precum cookies, identificatori de dispozitiv sau alte tehnologii similare pe dispozitivul dumneavoastră și procesa astfel de date pentru a personaliza conținutul și reclamele, dar și pentru a oferi caracteristici de social media și pentru a analiza traficul.

  • Stocarea și/sau accesarea informațiilor pe dispozitivul dumneavoastră

    Cookies, identificatori de dispozitiv sau alte informații pot fi stocate sau accesate pe dispozitiv în scopurile indicate mai sus.

  • Reclame și conținut personalizat, evaluarea reclamelor și a conținutului, informații despre audiențe și dezvoltarea produselor

    Reclamele și conținutul pot fi personalizate pe baza unui profil. Pot fi adăugate date suplimentare pentru a personaliza mai bine reclamele și conținutul. Performanța reclamelor și conținutului poate fi măsurată. Pot fi obținute informații despre utilizatorii care au văzut reclamele și conținutul. Aceste date pot fi utilizate pentru a dezvolta sau îmbunătăți experiența utilizatorilor, sistemele și software-ul.

Dând clic pe ‘Sunt de acord’, permiteți utilizarea cookie-urilor menționate, a identificatorilor de dispozitiv, balizelor web sau altor tehnologii similare. Setările pot fi modificate din browser-ul dispozitivului dumneavoastră.

În anumite scopuri, interesele legitime pot prima asupra consimțământului. Puteți citi mai multe informații în acest sens în Politica privind Confidențialitatea Datelor și Cookie.